050703 151  0.3-  0.3-    050726 151  0.2-  0.0     050803 J71  1.2-  0.3+  

050703 151  0.5-  0.1-    050726 151  0.3-  0.1+    050803 J71  1.3-  0.3+  

050703 151  0.7-  0.1-    050726 151  0.2-  0.0     050803 J95  0.1-  0.1-  

050705 203  0.0   0.1-    050726 151  0.0   0.1-    050803 J95  0.2-  0.0   

050705 203  0.1+  0.3-    050726 151  0.1-  0.0     050803 J95  0.1-  0.1-  

050705 127  0.2+  0.1+    050726 151  0.3-  0.1+    050803 J71  1.4-  0.4+  

050705 127  0.3+  0.4+    050726 151  0.1-  0.0     050803 147  0.2+  0.2+  

050705 127  0.3+  0.1-    050726 151  0.2-  0.1+    050803 147  0.2-  0.3+  

050706 157  0.2-  0.2-    050726 151  0.0   0.0     050803 147  0.1-  0.2+  

050706 157  0.0   0.3-    050727 A32  0.3+  0.2-    050803 147  0.0   0.3+  

050706 157  0.2-  0.2-    050727 A32  0.3+  0.2-    050803 147  0.5+  0.4+  

050706 157  0.5-  0.7-    050727 A32  0.3+  0.2-    050804 349  0.3-  0.0   

050711 A32  0.3-  0.2+    050727 A32  0.3+  0.1-    050804 349  0.1-  0.2-  

050711 A32  0.1-  0.3+    050727 A32  0.3+  0.0     050804 349  0.0   0.0   

050711 A32  0.1-  0.2+    050727 379  0.1-  0.3-    050804 349  0.0   0.1+  

050711 A32  0.0   0.2+    050727 379  0.2-  0.1-    050804 213  0.5+  0.2+  

050711 J94  0.1-  0.3-    050727 379  0.1-  0.0     050804 213  0.6+  0.1+  

050711 127  0.1+  0.2-    050727 379  0.4+  0.1-    050805 349  0.3-  0.2+  

050711 A32  0.1-  0.2+    050727 379  0.3-  0.3-    050805 349  0.5-  0.2+  

050711 127  0.3+  0.3+    050727 379  0.0   0.5-    050805 349  0.0   0.3+  

050711 J94  0.6+  0.4-    050727 379  0.2+  0.4-    050805 349  0.2-  0.1-  

050711 127  0.1+  0.1-    050727 379  0.2+  0.3-    050805 A67  0.9+  0.2+  

050711 127  0.2-  0.2+    050727 379  0.3+  0.3-    050805 442 (2.6-  2.4-) 

050711 J94  0.1-  0.3+    050727 151  0.0   0.1+    050805 442 (2.3-  2.6-) 

050711 J93  0.1-  0.2-    050727 151  0.0   0.2+    050805 A67  0.7+  0.1-  

050711 J93  0.0   0.2-    050727 151  0.1+  0.1-    050805 442 (2.4-  2.3-) 

050711 J93  0.1+  0.3-    050727 151  0.1-  0.1+    050805 J95  0.3-  0.3+  

050712 A13  0.4-  0.2+    050727 151  0.3-  0.1+    050805 J95  0.0   0.2+  

050712 A13  0.5-  0.2+    050727 151  0.2-  0.2+    050805 J95  0.0   0.3+  

050712 A13  0.3-  0.3+    050727 151  0.1+  0.1-    050806 J95  0.0   0.2+  

050712 A13  0.3-  0.2+    050727 240  0.0   0.2+    050806 J95  0.1+  0.2+  

050712 J94  0.2-  0.5-    050727 151  0.1-  0.2+    050806 J95  0.1-  0.2+  

050712 J94  0.0   0.1-    050727 151  0.0   0.0     050807 379  0.0   0.0   

050712 J93  0.4-  0.0     050727 240  0.1+  0.4+    050807 379  0.0   0.0   

050712 J93  0.2+  0.0     050727 151  0.1+  0.2+    050807 379  0.4+  0.2+  

050712 J93  0.2+  0.1-    050727 240  0.1+  0.3+    050807 379  0.3-  0.4+  

050712 J94  0.2-  0.2-    050727 240  0.0   0.3+    050807 379  0.1+  0.2+  

050713 151  0.2-  0.1+    050727 240  0.1+  0.1+    050807 J95  0.1-  0.1+  

050713 151  0.2-  0.1+    050727 240  0.1-  0.3+    050807 J95  0.0   0.1+  

050713 151  0.3-  0.2+    050727 240  0.0   0.3+    050807 J95  0.1+  0.2+  

050713 127  0.1-  0.1+    050727 240  0.1+  0.2+    050808 204  0.1+  0.3+  

050713 127  0.2+  0.0     050727 240  0.1+  0.2+    050808 204  0.2+  0.2+  

050713 127  0.0   0.2-    050727 240  0.1+  0.1+    050808 204  0.0   0.2+  

050713 127  0.0   0.2+    050727 240  0.0   0.2+    050808 204  0.0   0.2+  

050713 127  0.5+  0.0     050728 A30  0.0   0.0     050808 J95  0.2+  0.2+  

050714 726  0.2-  0.3-    050728 A30  0.1-  0.1+    050808 J95  0.3+  0.2+  

050714 726  0.1+  0.1+    050728 A30  0.1+  0.1+    050808 J95  0.3+  0.3+  

050714 379  0.4-  0.0     050728 A30  0.2+  0.1+    050809 J95  0.5+  0.2+  

050714 379  0.4-  0.0     050728 A30  0.2+  0.0     050809 J95  0.7+  0.3+  

050714 379  0.5-  0.1-    050728 151  0.1-  0.1+    050809 J95  0.7+  0.3+  

050714 379  0.1+  0.2-    050728 151  0.3-  0.0     050911 349  0.7-  1.7+  

050714 379  0.3-  0.6-    050728 151  0.1-  0.0     050911 349  0.6-  1.7+  

050714 379  0.1+  0.5-    050728 151  0.1+  0.1+    050911 349  0.4-  1.4+  

050714 379  0.1+  0.3-    050728 151  0.2-  0.3+    050912 349  0.6-  1.8+  

050714 379  0.3-  0.6-    050728 151  0.4-  0.3+    050912 349  0.8-  1.2+  

050714 379  0.1+  0.2-    050728 151  0.0   0.2-    050912 349  0.7-  1.1+  

050714 104  0.3-  0.2+    050728 151  0.2-  0.0                             

050714 104  0.7+  0.1+    050728 151  0.2-  0.2+                            



NAKANO

         **** Don't distribute anyone except personal use only ****

                (C) Copyright 2005 OAA/ComputingSection

write mail from CFAD0::NAKANO on 2005-10-01 02:43:05(JST).

 

◎169P(2002 EX12)の予報位置です



 上尾の門田健一氏の9月12日朝 JSTの観測によると,この彗星は,11.5等まで

増光しているとのことです.氏の観測によると,彗星には,恒星状の中央集光が

あって,コマの視直径が2'.4,西に5'.6の尾が見られると報告されています.

  次の予報位置は,Cometary Orbits in Augustの軌道からのものです.

 

2005/     α  (2000) δ        △      r    Elong. Phase    m1 天文薄明開始時

 27h JST    h  m       。  ,      AU      AU        。      。     等     h。    A。 

Sept.10  09 11.56  +11 50.3    0.530   0.621    31.6  121.9   13.6  +10.8  263.1

     11  09 12.52  +11 21.1    0.548   0.617    32.2  119.5   13.6  +11.3  264.1

     12  09 13.62  +10 53.2    0.565   0.613    32.8  117.2   13.6  +11.8  265.0

     13  09 14.86  +10 26.4    0.583   0.611    33.4  114.8   13.7  +12.3  265.9

     14  09 16.24  +10 00.7    0.601   0.608    34.0  112.5   13.7  +12.8  266.7

     15  09 17.75  +09 36.0    0.619   0.607    34.5  110.2   13.8  +13.2  267.6

     16  09 19.38  +09 12.1    0.638   0.606    35.0  107.9   13.8  +13.7  268.4

     17  09 21.12  +08 49.1    0.656   0.605    35.5  105.6   13.9  +14.1  269.1

     18  09 22.98  +08 26.8    0.674   0.606    35.9  103.3   14.0  +14.5  269.9

     19  09 24.93  +08 05.1    0.693   0.606    36.3  101.0   14.0  +14.8  270.6

     20  09 26.98  +07 44.1    0.711   0.608    36.7   98.8   14.1  +15.2  271.3

     21  09 29.12  +07 23.7    0.730   0.610    37.1   96.7   14.2  +15.6  272.0

     22  09 31.33  +07 03.8    0.748   0.613    37.5   94.5   14.2  +15.9  272.6

     23  09 33.62  +06 44.3    0.766   0.616    37.8   92.4   14.3  +16.2  273.3

     24  09 35.97  +06 25.3    0.784   0.620    38.2   90.4   14.4  +16.5  273.9

     25  09 38.38  +06 06.7    0.802   0.624    38.5   88.4   14.5  +16.8  274.5

     26  09 40.84  +05 48.5    0.820   0.629    38.8   86.5   14.6  +17.1  275.1

     27  09 43.35  +05 30.6    0.838   0.635    39.1   84.6   14.6  +17.4  275.7

     28  09 45.89  +05 13.1    0.856   0.641    39.4   82.7   14.7  +17.7  276.3

     29  09 48.47  +04 55.8    0.873   0.647    39.6   81.0   14.8  +18.0  276.9

     30  09 51.08  +04 38.9    0.890   0.654    39.9   79.2   14.9  +18.2  277.5

Oct.  1  09 53.70  +04 22.2    0.907   0.661    40.2   77.6   15.0  +18.5  278.1

      2  09 56.35  +04 05.7    0.924   0.669    40.4   76.0   15.1  +18.8  278.6

      3  09 59.01  +03 49.5    0.940   0.677    40.7   74.4   15.2  +19.0  279.2

      4  10 01.67  +03 33.5    0.956   0.686    41.0   72.9   15.3  +19.3  279.7

      5  10 04.35  +03 17.8    0.972   0.695    41.2   71.5   15.4  +19.6  280.3

      6  10 07.02  +03 02.3    0.988   0.704    41.5   70.1   15.4  +19.8  280.8

      7  10 09.69  +02 46.9    1.003   0.713    41.7   68.8   15.5  +20.1  281.4

      8  10 12.35  +02 31.8    1.019   0.723    42.0   67.6   15.6  +20.4  281.9

      9  10 15.00  +02 16.9    1.033   0.733    42.3   66.3   15.7  +20.6  282.5

     10  10 17.65  +02 02.2    1.048   0.744    42.5   65.2   15.8  +20.9  283.0

                    m1 = 17.0 + 5 log △ + 10.0 log r

NAKANO

         **** Don't distribute anyone except personal use only ****

                (C) Copyright 2005 OAA/ComputingSection

write mail from CFAD0::NAKANO on 2005-09-13 01:19:00(JST).

 



 169P/NEAT (2002 EX12)

Epoch 2005 Sept. 27.0 TT = JDT 2453640.5  

T 2005 Sept. 17.85868 TT                                Nakano

q   0.6053278            (2000.0)            P               Q

n   0.23460353     Peri.  217.92696     +0.82656362     -0.56269658

a   2.6036325      Node   176.24594     +0.55238473     +0.80661230

e   0.7675064      Incl.   11.31899     +0.10799854     +0.18096731

P   4.20

From 507 observations 1989-2005, mean residual 0".36.

Residuals in seconds of arc 

1989/                     050714 104  0.3-  0.2+    050728 151  0.4-  0.3+  

890307 261  0.9-  0.2-    050714 104  0.7+  0.1+    050728 151  0.0   0.2-  

890307 261  0.7+  0.2-    050714 104  0.3-  0.1+    050728 151  0.2-  0.0   

1998/                     050714 104  0.4-  0.1+    050728 151  0.2-  0.3+  

980403 691  0.8+  0.9-    050714 A53  0.3-  0.2+    050728 151  0.0   0.1+  

980403 691  0.8+  1.0-    050714 157  0.1-  0.2-    050728 151  0.4-  0.2+  

980403 691  0.7+  0.7-    050714 A53  0.1-  0.1+    050728 151  0.1-  0.3+  

2002/                     050714 157  0.0   0.4-    050728 151  0.1-  0.1+  

020315 644  0.1+  0.2+    050714 157  0.1-  0.3-    050728 151  0.2-  0.4+  

020315 644  0.2+  0.1+    050714 157  0.2-  0.4-    050728 151  0.3-  0.0   

020315 644  0.2+  0.4+    050714 A53  0.3-  0.2+    050728 151  0.4-  0.0   

020316 704  0.8-  1.5+    050714 A74  0.2+  0.4-    050728 151  0.2-  0.2+  

020316 704 (0.8-  2.2+)   050714 170  0.0   0.3-    050728 151  0.0   0.0   

020316 704  0.2-  1.4+    050714 170  0.1+  0.1-    050728 151  0.2-  0.2+  

020316 704  0.6-  0.4+    050714 170  0.3+  0.3-    050728 151  0.2-  0.3+  

020317 691  0.1-  0.3+    050714 203  0.2+  0.2-    050728 151  0.2-  0.2+  

020317 691  0.1-  0.7+    050714 A74  0.1+  0.4-    050728 151  0.1-  0.3+  

020317 691  0.4-  0.1+    050714 203  0.1-  0.4-    050728 151  0.0   0.1+  

020317 422  0.5+  0.9+    050714 A74  0.1+  0.4-    050728 151  0.1-  0.0   

020318 651  0.8+  1.0+    050714 A74  0.0   0.3-    050728 151  0.0   0.2+  

